Flag for Canada Weather past 2 weeks in Sanikiluaq, Nunavut Territory, Canada

Now
-20 °F

Clear.


Feels Like: -31 °F
Forecast: -26 / -14 °F
Wind: 3 mph from Southwest

Location: Kuujjuarapik

Current Time: Jan 30, 2015 at 8:18:50 AM

Latest Report: Jan 30, 2015 at 7:00 AM


Visibility: 9 mi

Pressure: 30.22 "Hg

Humidity: 68%

Dew point: -27 °F

Location of SanikiluaqLocation

Historic Weather in Sanikiluaq — Graph

°F

Sanikiluaq temperature yesterday

Maximum temperature yesterday: -8 °F (at 12:00 PM)
Minimum temperature yesterday: -18 °F (at 10:00 PM)
Average temperature yesterday: -11 °F

Past Weeks' High & Low Weather Summary

 TemperatureHumidityPressure
High12 °F (Jan 27, 7:56 PM)85% (Jan 27, 11:00 PM)30.40 "Hg (Jan 27, 11:00 PM)
Low-35 °F (Jan 19, 9:00 AM)53% (Jan 21, 1:00 AM)29.38 "Hg (Jan 24, 5:04 AM)
Average-11 °F74%29.95 "Hg
* Reported Jan 15 7:00 AM — Jan 30 7:00 AM, Sanikiluaq, Weather by CustomWeather, © 2014

Note: Actual official high and low records may vary slightly from our data, if they occured in-between our weather recording intervals... More about our weather records

Advertising

Sanikiluaq weather history for previous 24 hours

 ConditionsComfort  
Time TempWeatherWind HumidityBarometerVisibility
7:00 AM
Jan 30
-20 °FClear.3 mph68%30.22 "Hg9 mi
6:00 AM-26 °FClear.3 mph75%30.21 "Hg9 mi
5:00 AM-22 °FClear.6 mph75%30.19 "Hg9 mi
4:00 AM-22 °FClear.5 mph75%30.16 "Hg9 mi
3:00 AM-22 °FClear.7 mph75%30.14 "Hg9 mi
2:00 AM-20 °FClear.7 mph75%30.11 "Hg9 mi
1:00 AM-18 °FClear.7 mph75%30.09 "Hg9 mi
12:00 AM-20 °FPassing clouds.2 mph75%30.09 "Hg9 mi
11:00 PM
Jan 29
-17 °FOvercast.No wind76%30.06 "Hg7 mi
10:00 PM-18 °FPassing clouds.No wind83%30.06 "Hg9 mi
9:00 PM-17 °FClear.3 mph76%30.05 "Hg9 mi
8:00 PM-15 °FLight snow. Passing clouds.3 mph76%30.04 "Hg9 mi
7:00 PM-11 °FPassing clouds.6 mph76%30.03 "Hg9 mi
6:00 PM-9 °FLight snow. Mostly cloudy.6 mph84%30.01 "Hg9 mi
5:00 PM-9 °FLight snow. Passing clouds.6 mph77%30.01 "Hg6 mi
4:00 PM-8 °FLight snow. Overcast.5 mph77%30.00 "Hg7 mi
3:58 PM-8 °FLight snow. Overcast.5 mph77%30.00 "Hg6 mi
3:00 PM-8 °FLight snow. Mostly cloudy.5 mph77%30.01 "Hg3 mi
2:54 PM-8 °FLight snow. Overcast.6 mph77%30.01 "Hg4 mi
2:00 PM-8 °FLight snow. Mostly cloudy.5 mph77%30.02 "Hg2 mi
1:00 PM-8 °FLight snow. Overcast.3 mph77%30.04 "Hg1 mi
12:00 PM-8 °FLight snow. Overcast.2 mph70%30.05 "Hg2 mi
11:01 AM-9 °FLight snow. Overcast.3 mph77%30.07 "Hg2 mi
10:00 AM-11 °FLight snow. Overcast.7 mph76%30.09 "Hg8 mi
9:00 AM-11 °FMore clouds than sun.6 mph76%30.11 "Hg9 mi
8:55 AM-11 °FMostly cloudy.6 mph76%30.11 "Hg9 mi
8:00 AM-11 °FLight snow. Mostly cloudy.6 mph76%30.12 "Hg9 mi
Weather by CustomWeather, © 2014

See weather overviewHow to use our weather pages